BEIDOU-2 G7

Last updated on Tue Dec 16 2025 00:02:50 GMT+0000 (Coordinated Universal Time)

1 41586U 16037A 25349.36156008 -.00000333 00000+0 00000+0 0 9991 2 41586 1.7635 67.7952 0004901 3.6193 253.4477 1.00273935 5041
UTC large
Height (km)
Speed (km/s)
/
Latitude / Longitude
Inclination (degrees)
Orbital Period (minutes)
Azimuth
Elevation
Range (km)
Doppler Factor

Next 0 passes for location: London (51.5072 / 0.1276)

Sorry there are no passes over London.